This is the latest recevied weather packets stored in our database for station/object KC1BRV. If no packets are shown the sender has not sent any weather packets the latest 10 day(s).
| Time | Temp. | Humidity | Pressure | Rain* | Wind** | Luminosity | Snow |
|---|---|---|---|---|---|---|---|
| 1787874895 | 21.67° C | 88% | 1017.2 hPa | 0 mm | - | 0 W/m² | - |
| 1787874590 | 22.22° C | 88% | 1017.4 hPa | 0 mm | - | 0 W/m² | - |
| 1787874284 | 22.22° C | 88% | 1017.2 hPa | 0 mm | - | 0 W/m² | - |
| 1787873979 | 22.22° C | 87% | 1017.2 hPa | 0 mm | - | 0 W/m² | - |
| 1787873678 | 22.22° C | 87% | 1017.2 hPa | 0 mm | - | 1 W/m² | - |
| 1787873373 | 22.22° C | 87% | 1017.3 hPa | 0 mm | - | 1 W/m² | - |
| 1787873078 | 22.22° C | 86% | 1017.2 hPa | 0 mm | - | 2 W/m² | - |
| 1787872767 | 22.78° C | 86% | 1017.2 hPa | 0 mm | - | 4 W/m² | - |
| 1787872463 | 22.78° C | 85% | 1017 hPa | 0 mm | - | 6 W/m² | - |
| 1787872158 | 22.78° C | 85% | 1017.1 hPa | 0 mm | - | 9 W/m² | - |
| 1787871857 | 22.78° C | 84% | 1017.2 hPa | 0 mm | - | 12 W/m² | - |
| 1787871552 | 22.78° C | 84% | 1016.9 hPa | 0 mm | - | 17 W/m² | - |
| 1787871248 | 22.78° C | 84% | 1016.9 hPa | 0 mm | - | 23 W/m² | - |
| 1787870943 | 22.78° C | 83% | 1016.8 hPa | 0 mm | - | 27 W/m² | - |
| 1787870643 | 23.33° C | 83% | 1017 hPa | 0 mm | - | 29 W/m² | - |
| 1787870337 | 23.33° C | 82% | 1017.2 hPa | 0 mm | - | 33 W/m² | - |
| 1787870033 | 23.33° C | 82% | 1017.1 hPa | 0 mm | - | 36 W/m² | - |
| 1787869732 | 23.33° C | 83% | 1017.4 hPa | 0 mm | - | 37 W/m² | - |
| 1787869425 | 23.33° C | 82% | 1017.5 hPa | 0 mm | - | 37 W/m² | - |
| 1787869120 | 23.33° C | 81% | 1017.5 hPa | 0 mm | - | 35 W/m² | - |
| 1787868819 | 23.33° C | 80% | 1017.4 hPa | 0 mm | - | 36 W/m² | - |
| 1787868518 | 23.33° C | 80% | 1017.5 hPa | 0 mm | - | 39 W/m² | - |
| 1787868217 | 23.89° C | 79% | 1017.5 hPa | 0 mm | - | 38 W/m² | - |
| 1787867912 | 23.89° C | 79% | 1017.7 hPa | 0 mm | - | 42 W/m² | - |
| 1787867609 | 23.89° C | 78% | 1017.8 hPa | 0 mm | - | 56 W/m² | - |
* Rain latest hour (hover to see other rain measurements)
** Current wind speed in m/s (hover to see current wind gust speed)